Time,TemperatureF,DewpointF,PressureIn,WindDirection,WindDirectionDegrees,WindSpeedMPH,WindSpeedGustMPH,Humidity,HourlyPrecipIn,Conditions,Clouds,dailyrainin,SoftwareType,DateUTC
2013-02-14 00:02:00,31.0,28.0,29.74,NE,35,1.0,-999.0,88,-99.99,,,-99.99,,2013-02-14 05:02:00,
2013-02-14 00:11:00,31.0,28.0,29.74,NE,35,1.0,-999.0,88,-99.99,,,-99.99,,2013-02-14 05:11:00,
2013-02-14 00:22:00,31.0,28.0,29.74,NE,35,1.0,-999.0,88,-99.99,,,-99.99,,2013-02-14 05:22:00,
2013-02-14 00:32:00,30.0,27.0,29.72,NE,40,0.0,-999.0,90,-99.99,,,-99.99,,2013-02-14 05:32:00,
2013-02-14 00:42:00,30.0,27.0,29.72,NE,40,0.0,-999.0,90,-99.99,,,-99.99,,2013-02-14 05:42:00,
2013-02-14 00:52:00,30.0,27.0,29.73,ENE,76,1.0,-999.0,90,-99.99,,,-99.99,,2013-02-14 05:52:00,
2013-02-14 01:02:00,30.0,27.0,29.72,NE,52,1.0,-999.0,90,-99.99,,,-99.99,,2013-02-14 06:02:00,
2013-02-14 01:11:00,30.0,27.0,29.72,ENE,74,1.0,-999.0,90,-99.99,,,-99.99,,2013-02-14 06:11:00,
2013-02-14 01:21:00,30.0,27.0,29.72,ENE,74,1.0,-999.0,90,-99.99,,,-99.99,,2013-02-14 06:21:00,
2013-02-14 01:32:00,30.0,27.0,29.72,ENE,74,0.0,-999.0,90,-99.99,,,-99.99,,2013-02-14 06:32:00,
2013-02-14 01:42:00,30.0,27.0,29.72,ENE,74,0.0,-999.0,90,-99.99,,,-99.99,,2013-02-14 06:42:00,
2013-02-14 01:51:00,30.0,28.0,29.73,NE,49,1.0,-999.0,91,-99.99,,,-99.99,,2013-02-14 06:51:00,
2013-02-14 02:01:00,29.0,27.0,29.73,NNE,26,1.0,-999.0,91,-99.99,,,-99.99,,2013-02-14 07:01:00,
2013-02-14 02:11:00,29.0,27.0,29.73,NNE,26,0.0,-999.0,91,-99.99,,,-99.99,,2013-02-14 07:11:00,
2013-02-14 02:21:00,29.0,27.0,29.73,NNE,26,0.0,-999.0,91,-99.99,,,-99.99,,2013-02-14 07:21:00,
2013-02-14 02:32:00,29.0,26.0,29.74,NNE,25,0.0,-999.0,90,-99.99,,,-99.99,,2013-02-14 07:32:00,
2013-02-14 02:42:00,29.0,26.0,29.74,NNE,25,0.0,-999.0,90,-99.99,,,-99.99,,2013-02-14 07:42:00,
2013-02-14 02:52:00,29.0,26.0,29.75,NNE,26,0.0,-999.0,90,-99.99,,,-99.99,,2013-02-14 07:52:00,
2013-02-14 03:01:00,29.0,27.0,29.76,NNE,25,0.0,-999.0,91,-99.99,,,-99.99,,2013-02-14 08:01:00,
2013-02-14 03:11:00,29.0,27.0,29.76,NNE,25,0.0,-999.0,91,-99.99,,,-99.99,,2013-02-14 08:11:00,
2013-02-14 03:22:00,29.0,27.0,29.75,NNE,26,0.0,-999.0,91,-99.99,,,-99.99,,2013-02-14 08:22:00,
2013-02-14 03:32:00,29.0,27.0,29.76,NNE,26,0.0,-999.0,91,-99.99,,,-99.99,,2013-02-14 08:32:00,
2013-02-14 03:43:00,29.0,27.0,29.76,NNE,26,0.0,-999.0,91,-99.99,,,-99.99,,2013-02-14 08:43:00,
2013-02-14 03:52:00,29.0,27.0,29.77,NNE,13,0.0,-999.0,91,-99.99,,,-99.99,,2013-02-14 08:52:00,
2013-02-14 04:02:00,29.0,26.0,29.77,NNW,340,1.0,-999.0,90,-99.99,,,-99.99,,2013-02-14 09:02:00,
2013-02-14 04:11:00,29.0,26.0,29.78,NNW,340,0.0,-999.0,89,-99.99,,,-99.99,,2013-02-14 09:11:00,
2013-02-14 04:21:00,29.0,26.0,29.78,NNW,340,0.0,-999.0,89,-99.99,,,-99.99,,2013-02-14 09:21:00,
2013-02-14 04:32:00,28.0,25.0,29.78,NNW,340,0.0,-999.0,88,-99.99,,,-99.99,,2013-02-14 09:32:00,
2013-02-14 04:42:00,28.0,25.0,29.78,NNW,340,0.0,-999.0,88,-99.99,,,-99.99,,2013-02-14 09:42:00,
2013-02-14 04:51:00,28.0,25.0,29.79,NNW,340,0.0,-999.0,88,-99.99,,,-99.99,,2013-02-14 09:51:00,
2013-02-14 05:02:00,27.0,24.0,29.79,NNW,343,0.0,-999.0,88,-99.99,,,-99.99,,2013-02-14 10:02:00,
2013-02-14 05:11:00,27.0,24.0,29.80,NNW,345,0.0,-999.0,88,-99.99,,,-99.99,,2013-02-14 10:11:00,
2013-02-14 05:21:00,27.0,24.0,29.80,NNW,345,0.0,-999.0,88,-99.99,,,-99.99,,2013-02-14 10:21:00,
2013-02-14 05:32:00,27.0,24.0,29.80,NNW,345,0.0,-999.0,88,-99.99,,,-99.99,,2013-02-14 10:32:00,
2013-02-14 05:42:00,27.0,24.0,29.80,NNW,345,0.0,-999.0,88,-99.99,,,-99.99,,2013-02-14 10:42:00,
2013-02-14 05:52:00,28.0,25.0,29.80,North,359,1.0,-999.0,87,-99.99,,,-99.99,,2013-02-14 10:52:00,
2013-02-14 06:02:00,28.0,25.0,29.81,North,4,1.0,-999.0,87,-99.99,,,-99.99,,2013-02-14 11:02:00,
2013-02-14 06:11:00,28.0,25.0,29.80,North,4,0.0,-999.0,87,-99.99,,,-99.99,,2013-02-14 11:11:00,
2013-02-14 06:21:00,28.0,25.0,29.80,North,4,0.0,-999.0,87,-99.99,,,-99.99,,2013-02-14 11:21:00,
2013-02-14 06:32:00,27.0,24.0,29.82,North,359,0.0,-999.0,87,-99.99,,,-99.99,,2013-02-14 11:32:00,
2013-02-14 06:42:00,27.0,24.0,29.82,North,359,0.0,-999.0,87,-99.99,,,-99.99,,2013-02-14 11:42:00,
2013-02-14 06:52:00,27.0,24.0,29.83,North,4,0.0,-999.0,87,-99.99,,,-99.99,,2013-02-14 11:52:00,
2013-02-14 07:02:00,27.0,24.0,29.83,North,359,0.0,-999.0,87,-99.99,,,-99.99,,2013-02-14 12:02:00,
2013-02-14 07:12:00,27.0,24.0,29.83,North,359,0.0,-999.0,87,-99.99,,,-99.99,,2013-02-14 12:12:00,
2013-02-14 07:22:00,26.0,22.0,29.83,North,4,0.0,-999.0,86,-99.99,,,-99.99,,2013-02-14 12:22:00,
2013-02-14 07:32:00,26.0,23.0,29.85,North,4,0.0,-999.0,87,-99.99,,,-99.99,,2013-02-14 12:32:00,
2013-02-14 07:42:00,26.0,23.0,29.85,North,4,0.0,-999.0,87,-99.99,,,-99.99,,2013-02-14 12:42:00,
2013-02-14 07:53:00,26.0,22.0,29.86,North,359,0.0,-999.0,85,-99.99,,,-99.99,,2013-02-14 12:53:00,
2013-02-14 08:02:00,27.0,23.0,29.87,North,359,0.0,-999.0,84,-99.99,,,-99.99,,2013-02-14 13:02:00,
2013-02-14 08:11:00,27.0,23.0,29.87,North,359,0.0,-999.0,84,-99.99,,,-99.99,,2013-02-14 13:11:00,
2013-02-14 08:21:00,27.0,22.0,29.88,North,4,1.0,-999.0,82,-99.99,,,-99.99,,2013-02-14 13:21:00,
2013-02-14 08:32:00,27.0,22.0,29.89,North,354,0.0,-999.0,81,-99.99,,,-99.99,,2013-02-14 13:32:00,
2013-02-14 08:42:00,27.0,22.0,29.89,North,354,0.0,-999.0,81,-99.99,,,-99.99,,2013-02-14 13:42:00,
2013-02-14 08:51:00,28.0,23.0,29.90,NNW,348,1.0,-999.0,80,-99.99,,,-99.99,,2013-02-14 13:51:00,
2013-02-14 09:01:00,29.0,23.0,29.90,NNW,345,0.0,-999.0,78,-99.99,,,-99.99,,2013-02-14 14:01:00,
2013-02-14 09:11:00,31.0,23.0,29.91,NNE,20,3.0,-999.0,73,-99.99,,,-99.99,,2013-02-14 14:11:00,
2013-02-14 09:21:00,31.0,23.0,29.91,NNE,20,3.0,-999.0,73,-99.99,,,-99.99,,2013-02-14 14:21:00,
2013-02-14 09:52:00,33.0,23.0,29.91,North,354,1.0,-999.0,67,-99.99,,,-99.99,,2013-02-14 14:52:00,
2013-02-14 10:02:00,34.0,23.0,29.92,NNE,32,2.0,-999.0,65,-99.99,,,-99.99,,2013-02-14 15:02:00,
2013-02-14 10:11:00,34.0,23.0,29.92,NNE,32,2.0,-999.0,65,-99.99,,,-99.99,,2013-02-14 15:11:00,
2013-02-14 10:21:00,35.0,24.0,29.93,NNW,341,4.0,-999.0,63,-99.99,,,-99.99,,2013-02-14 15:21:00,
2013-02-14 10:32:00,35.0,23.0,29.93,NNW,341,3.0,-999.0,61,-99.99,,,-99.99,,2013-02-14 15:32:00,
2013-02-14 10:42:00,35.0,23.0,29.93,NNW,341,3.0,-999.0,61,-99.99,,,-99.99,,2013-02-14 15:42:00,
2013-02-14 10:52:00,36.0,23.0,29.93,NW,305,4.0,-999.0,59,-99.99,,,-99.99,,2013-02-14 15:52:00,
2013-02-14 11:02:00,36.0,23.0,29.93,NE,41,4.0,-999.0,60,-99.99,,,-99.99,,2013-02-14 16:02:00,
2013-02-14 11:11:00,37.0,25.0,29.93,WNW,303,4.0,-999.0,61,-99.99,,,-99.99,,2013-02-14 16:11:00,
2013-02-14 11:21:00,37.0,25.0,29.93,WNW,303,4.0,-999.0,61,-99.99,,,-99.99,,2013-02-14 16:21:00,
2013-02-14 11:32:00,37.0,24.0,29.94,ENE,68,5.0,-999.0,60,-99.99,,,-99.99,,2013-02-14 16:32:00,
2013-02-14 11:42:00,37.0,24.0,29.94,ENE,68,5.0,-999.0,60,-99.99,,,-99.99,,2013-02-14 16:42:00,
2013-02-14 11:52:00,37.0,24.0,29.93,NW,326,4.0,-999.0,58,-99.99,,,-99.99,,2013-02-14 16:52:00,
2013-02-14 12:01:00,38.0,23.0,29.93,North,354,5.0,-999.0,54,-99.99,,,-99.99,,2013-02-14 17:01:00,
2013-02-14 12:11:00,38.0,24.0,29.93,NW,305,3.0,-999.0,57,-99.99,,,-99.99,,2013-02-14 17:11:00,
2013-02-14 12:21:00,38.0,24.0,29.93,NW,305,3.0,-999.0,57,-99.99,,,-99.99,,2013-02-14 17:21:00,
2013-02-14 12:32:00,38.0,22.0,29.93,NNE,21,4.0,-999.0,53,-99.99,,,-99.99,,2013-02-14 17:32:00,
2013-02-14 12:42:00,38.0,22.0,29.93,NNE,21,4.0,-999.0,53,-99.99,,,-99.99,,2013-02-14 17:42:00,
2013-02-14 12:52:00,38.0,23.0,29.93,NNE,23,6.0,-999.0,55,-99.99,,,-99.99,,2013-02-14 17:52:00,
2013-02-14 13:01:00,39.0,26.0,29.93,NNE,25,0.0,-999.0,59,-99.99,,,-99.99,,2013-02-14 18:01:00,
2013-02-14 13:11:00,39.0,26.0,29.93,NNE,25,0.0,-999.0,59,-99.99,,,-99.99,,2013-02-14 18:11:00,
2013-02-14 13:23:00,39.0,23.0,29.92,NNE,27,3.0,-999.0,53,-99.99,,,-99.99,,2013-02-14 18:23:00,
2013-02-14 13:32:00,41.0,24.0,29.92,West,259,0.0,-999.0,50,-99.99,,,-99.99,,2013-02-14 18:32:00,
2013-02-14 13:42:00,41.0,24.0,29.92,West,259,0.0,-999.0,50,-99.99,,,-99.99,,2013-02-14 18:42:00,
2013-02-14 13:52:00,41.0,24.0,29.91,NE,37,1.0,-999.0,51,-99.99,,,-99.99,,2013-02-14 18:52:00,
2013-02-14 14:02:00,42.0,27.0,29.92,NNW,340,0.0,-999.0,54,-99.99,,,-99.99,,2013-02-14 19:02:00,
2013-02-14 14:11:00,42.0,27.0,29.92,NNW,340,0.0,-999.0,54,-99.99,,,-99.99,,2013-02-14 19:11:00,
2013-02-14 14:22:00,43.0,25.0,29.92,SW,235,2.0,-999.0,49,-99.99,,,-99.99,,2013-02-14 19:22:00,
2013-02-14 14:32:00,44.0,24.0,29.93,WSW,258,0.0,-999.0,45,-99.99,,,-99.99,,2013-02-14 19:32:00,
2013-02-14 14:42:00,44.0,24.0,29.93,WSW,258,0.0,-999.0,45,-99.99,,,-99.99,,2013-02-14 19:42:00,
2013-02-14 14:52:00,44.0,24.0,29.93,WSW,249,1.0,-999.0,45,-99.99,,,-99.99,,2013-02-14 19:52:00,
2013-02-14 15:01:00,44.0,23.0,29.93,WSW,258,0.0,-999.0,43,-99.99,,,-99.99,,2013-02-14 20:01:00,
2013-02-14 15:11:00,43.0,23.0,29.93,NNW,341,1.0,-999.0,45,-99.99,,,-99.99,,2013-02-14 20:11:00,
2013-02-14 15:21:00,43.0,23.0,29.93,NNW,341,1.0,-999.0,45,-99.99,,,-99.99,,2013-02-14 20:21:00,
2013-02-14 15:32:00,42.0,22.0,29.95,West,264,1.0,-999.0,45,-99.99,,,-99.99,,2013-02-14 20:32:00,
2013-02-14 15:42:00,42.0,22.0,29.95,West,264,1.0,-999.0,45,-99.99,,,-99.99,,2013-02-14 20:42:00,
2013-02-14 15:52:00,42.0,23.0,29.94,WNW,290,0.0,-999.0,46,-99.99,,,-99.99,,2013-02-14 20:52:00,
2013-02-14 16:02:00,41.0,23.0,29.94,NNW,339,1.0,-999.0,48,-99.99,,,-99.99,,2013-02-14 21:02:00,
2013-02-14 16:11:00,41.0,23.0,29.94,NNW,339,1.0,-999.0,48,-99.99,,,-99.99,,2013-02-14 21:11:00,
2013-02-14 16:21:00,41.0,22.0,29.95,WSW,252,1.0,-999.0,47,-99.99,,,-99.99,,2013-02-14 21:21:00,
2013-02-14 16:32:00,40.0,22.0,29.95,SW,218,1.0,-999.0,49,-99.99,,,-99.99,,2013-02-14 21:32:00,
2013-02-14 16:42:00,40.0,22.0,29.95,SW,218,1.0,-999.0,49,-99.99,,,-99.99,,2013-02-14 21:42:00,
2013-02-14 16:52:00,40.0,22.0,29.95,SW,221,0.0,-999.0,49,-99.99,,,-99.99,,2013-02-14 21:52:00,
2013-02-14 17:02:00,40.0,22.0,29.95,SW,222,0.0,-999.0,49,-99.99,,,-99.99,,2013-02-14 22:02:00,
2013-02-14 17:11:00,39.0,22.0,29.96,SW,228,1.0,-999.0,50,-99.99,,,-99.99,,2013-02-14 22:11:00,
2013-02-14 17:21:00,39.0,22.0,29.96,SW,228,1.0,-999.0,50,-99.99,,,-99.99,,2013-02-14 22:21:00,
2013-02-14 17:32:00,38.0,22.0,29.97,SW,229,1.0,-999.0,52,-99.99,,,-99.99,,2013-02-14 22:32:00,
2013-02-14 17:42:00,38.0,22.0,29.97,SW,229,1.0,-999.0,52,-99.99,,,-99.99,,2013-02-14 22:42:00,
2013-02-14 17:52:00,37.0,22.0,29.97,SW,229,0.0,-999.0,55,-99.99,,,-99.99,,2013-02-14 22:52:00,
2013-02-14 18:01:00,37.0,23.0,29.98,SW,229,0.0,-999.0,57,-99.99,,,-99.99,,2013-02-14 23:01:00,
2013-02-14 18:11:00,37.0,23.0,29.98,SW,229,0.0,-999.0,57,-99.99,,,-99.99,,2013-02-14 23:11:00,
2013-02-14 18:21:00,37.0,24.0,29.98,SW,231,0.0,-999.0,58,-99.99,,,-99.99,,2013-02-14 23:21:00,
2013-02-14 18:32:00,36.0,23.0,29.98,SW,231,0.0,-999.0,58,-99.99,,,-99.99,,2013-02-14 23:32:00,
2013-02-14 18:42:00,36.0,23.0,29.98,SW,231,0.0,-999.0,58,-99.99,,,-99.99,,2013-02-14 23:42:00,
2013-02-14 18:52:00,36.0,23.0,29.98,SW,231,0.0,-999.0,60,-99.99,,,-99.99,,2013-02-14 23:52:00,
2013-02-14 19:01:00,35.0,23.0,29.98,SW,229,0.0,-999.0,61,-99.99,,,-99.99,,2013-02-15 00:01:00,
2013-02-14 19:11:00,35.0,23.0,29.98,SW,229,0.0,-999.0,61,-99.99,,,-99.99,,2013-02-15 00:11:00,
2013-02-14 19:22:00,35.0,23.0,29.98,SW,229,0.0,-999.0,62,-99.99,,,-99.99,,2013-02-15 00:22:00,
2013-02-14 19:32:00,35.0,23.0,29.98,SW,226,0.0,-999.0,62,-99.99,,,-99.99,,2013-02-15 00:32:00,
2013-02-14 19:42:00,35.0,23.0,29.98,SW,226,0.0,-999.0,62,-99.99,,,-99.99,,2013-02-15 00:42:00,
2013-02-14 19:52:00,35.0,23.0,29.99,SW,226,1.0,-999.0,62,-99.99,,,-99.99,,2013-02-15 00:52:00,
2013-02-14 20:02:00,35.0,23.0,29.98,SW,224,0.0,-999.0,62,-99.99,,,-99.99,,2013-02-15 01:02:00,
2013-02-14 20:11:00,35.0,23.0,29.98,SW,224,0.0,-999.0,62,-99.99,,,-99.99,,2013-02-15 01:11:00,
2013-02-14 20:21:00,35.0,24.0,29.98,SW,224,0.0,-999.0,63,-99.99,,,-99.99,,2013-02-15 01:21:00,
2013-02-14 20:32:00,34.0,23.0,29.98,SW,224,0.0,-999.0,64,-99.99,,,-99.99,,2013-02-15 01:32:00,
2013-02-14 20:41:00,34.0,23.0,29.98,SW,224,0.0,-999.0,64,-99.99,,,-99.99,,2013-02-15 01:41:00,
2013-02-14 20:52:00,34.0,24.0,29.98,SW,224,0.0,-999.0,66,-99.99,,,-99.99,,2013-02-15 01:52:00,
2013-02-14 21:01:00,33.0,23.0,30.00,SW,224,0.0,-999.0,67,-99.99,,,-99.99,,2013-02-15 02:01:00,
2013-02-14 21:11:00,33.0,23.0,30.00,SW,224,0.0,-999.0,67,-99.99,,,-99.99,,2013-02-15 02:11:00,
2013-02-14 21:21:00,33.0,24.0,29.99,SW,222,1.0,-999.0,70,-99.99,,,-99.99,,2013-02-15 02:21:00,
2013-02-14 21:32:00,33.0,25.0,30.00,SW,222,0.0,-999.0,72,-99.99,,,-99.99,,2013-02-15 02:32:00,
2013-02-14 21:41:00,33.0,25.0,30.00,SW,222,0.0,-999.0,72,-99.99,,,-99.99,,2013-02-15 02:41:00,
2013-02-14 21:52:00,33.0,25.0,30.00,SW,222,0.0,-999.0,72,-99.99,,,-99.99,,2013-02-15 02:52:00,
2013-02-14 22:02:00,33.0,26.0,30.00,SW,222,0.0,-999.0,74,-99.99,,,-99.99,,2013-02-15 03:02:00,
2013-02-14 22:11:00,33.0,26.0,30.00,SW,222,0.0,-999.0,74,-99.99,,,-99.99,,2013-02-15 03:11:00,
2013-02-14 22:22:00,33.0,26.0,30.00,SW,223,1.0,-999.0,76,-99.99,,,-99.99,,2013-02-15 03:22:00,
2013-02-14 22:32:00,33.0,27.0,29.99,SW,228,2.0,-999.0,77,-99.99,,,-99.99,,2013-02-15 03:32:00,
2013-02-14 22:42:00,33.0,27.0,29.99,SW,228,2.0,-999.0,77,-99.99,,,-99.99,,2013-02-15 03:42:00,
2013-02-14 22:52:00,33.0,27.0,29.99,SW,224,1.0,-999.0,78,-99.99,,,-99.99,,2013-02-15 03:52:00,
2013-02-14 23:01:00,33.0,27.0,29.99,SW,224,0.0,-999.0,79,-99.99,,,-99.99,,2013-02-15 04:01:00,
2013-02-14 23:11:00,33.0,27.0,29.99,SW,224,0.0,-999.0,79,-99.99,,,-99.99,,2013-02-15 04:11:00,
2013-02-14 23:21:00,33.0,28.0,30.00,SW,224,0.0,-999.0,81,-99.99,,,-99.99,,2013-02-15 04:21:00,
2013-02-14 23:32:00,32.0,27.0,29.99,SW,225,1.0,-999.0,83,-99.99,,,-99.99,,2013-02-15 04:32:00,
2013-02-14 23:42:00,32.0,27.0,29.99,SW,225,1.0,-999.0,83,-99.99,,,-99.99,,2013-02-15 04:42:00,
2013-02-14 23:52:00,32.0,28.0,29.99,SW,224,2.0,-999.0,84,-99.99,,,-99.99,,2013-02-15 04:52:00,